Keahole Point, HI

8:39 PM HST on March 24, 2017 (GMT -1000)
Kona International At Keahole

Weather History for PHKO - November, 2014

Change the Weather History Date:

Sunday, November 2, 2014

  Actual Average Record
Temperature  
Mean Temperature 80 °F -  
Max Temperature 84 °F 82 °F 90 °F (1988)
Min Temperature 75 °F 72 °F 68 °F (1985)
Cooling Degree Days 14    
Growing Degree Days 30 (Base 50)    
Moisture  
Dew Point 71 °F    
Average Humidity 80    
Maximum Humidity 94    
Minimum Humidity 67    
Precipitation  
Precipitation 0.53 in - - ()
Sea Level Pressure  
Sea Level Pressure 29.99 in    
Wind  
Wind Speed 7 mph (SSE)    
Max Wind Speed 13 mph    
Max Gust Speed 17 mph    
Visibility 9 miles    
Events Rain    
Averages and records for this station are not official NWS values.
T = Trace of Precipitation, MM = Missing Value Source: NWS Daily Summary

Daily Weather History Graph

Daily Weather History Graph

Search for Another Location

Airport or City:

Trip Planner

Search our weather history database for the weather conditions in past years. The results will help you decide how hot, cold, wet, or windy it might be!

Date:

Astronomy

Nov. 02, 2014 Rise Set
Actual Time 6:25 AM HST 5:49 PM HST
Civil Twilight 6:03 AM HST 6:12 PM HST
Nautical Twilight 5:37 AM HST 6:38 PM HST
Astronomical Twilight 5:11 AM HST 7:04 PM HST
Moon 2:55 PM HST (11/2) 2:18 AM HST (11/2)
Length of Visible Light 12h 08m
Length of Day
11h 23m
Waxing Gibbous, 80% of the Moon is Illuminated
Nov 2
Waxing Gibbous
Nov 6
Full
Nov 14
Last Quarter
Nov 22
New
Nov 29
First Quarter

Hourly Weather History & Observations

Time (HST) Temp. Heat Index Dew Point Humidity Pressure Visibility Wind Dir Wind Speed Gust Speed Precip Events Conditions
12:12 AM 77.0 °F - 73.4 °F 89% 30.02 in 6.0 mi ENE 10.4 mph - 0.03 in Rain Light Rain
12:28 AM 75.2 °F - 71.6 °F 89% 30.01 in 1.8 mi Variable 4.6 mph 17.3 mph 0.24 in Rain Heavy Rain
12:35 AM 75.2 °F - 71.6 °F 89% 30.01 in 3.0 mi Calm Calm - 0.28 in Rain Heavy Rain
12:51 AM 75.2 °F - 73.4 °F 94% 30.01 in 2.0 mi Calm Calm - 0.47 in Rain Heavy Rain
12:53 AM 75.9 °F - 73.9 °F 94% 30.01 in 2.0 mi Variable 3.5 mph - 0.48 in Rain Heavy Rain
1:04 AM 77.0 °F - 73.4 °F 89% 30.01 in 6.0 mi NW 11.5 mph - 0.01 in Rain Light Rain
1:27 AM 77.0 °F - 73.4 °F 89% 30.01 in 8.0 mi NW 6.9 mph - 0.02 in Rain Light Rain
1:53 AM 75.9 °F - 71.1 °F 85% 30.00 in 10.0 mi NW 6.9 mph - 0.03 in   Overcast
2:53 AM 75.0 °F - 72.0 °F 90% 29.99 in 9.0 mi NNE 3.5 mph - 0.01 in Rain Light Rain
3:53 AM 75.9 °F - 72.0 °F 87% 29.98 in 10.0 mi NE 4.6 mph - 0.00 in   Overcast
4:53 AM 75.0 °F - 72.0 °F 90% 29.97 in 10.0 mi NNE 4.6 mph - 0.01 in   Mostly Cloudy
5:53 AM 75.0 °F - 71.1 °F 87% 29.98 in 10.0 mi East 4.6 mph - N/A   Overcast
6:53 AM 75.0 °F - 70.0 °F 84% 29.99 in 10.0 mi SE 8.1 mph - N/A   Mostly Cloudy
7:53 AM 75.9 °F - 70.0 °F 82% 30.00 in 10.0 mi SE 6.9 mph - N/A   Mostly Cloudy
8:53 AM 78.1 °F - 71.1 °F 79% 30.00 in 10.0 mi SE 5.8 mph - N/A   Mostly Cloudy
9:53 AM 80.1 °F 83.6 °F 71.1 °F 74% 30.01 in 10.0 mi SSE 11.5 mph - N/A   Mostly Cloudy
10:53 AM 82.0 °F 86.7 °F 72.0 °F 71% 30.00 in 10.0 mi SSE 12.7 mph - N/A   Mostly Cloudy
11:53 AM 82.0 °F 86.3 °F 71.1 °F 69% 29.98 in 10.0 mi South 8.1 mph - N/A   Clear
12:53 PM 82.9 °F 88.8 °F 73.0 °F 72% 29.96 in 10.0 mi South 9.2 mph - N/A   Overcast
1:53 PM 82.9 °F 88.0 °F 72.0 °F 69% 29.94 in 10.0 mi SSW 8.1 mph - N/A   Overcast
2:53 PM 84.0 °F 89.6 °F 72.0 °F 67% 29.93 in 10.0 mi SW 10.4 mph - N/A   Mostly Cloudy
3:53 PM 82.0 °F 86.3 °F 71.1 °F 69% 29.93 in 10.0 mi WSW 6.9 mph - N/A   Overcast
4:53 PM 82.0 °F 86.3 °F 71.1 °F 69% 29.94 in 10.0 mi South 5.8 mph - N/A   Mostly Cloudy
5:53 PM 81.0 °F 85.2 °F 72.0 °F 74% 29.95 in 10.0 mi South 11.5 mph - N/A   Mostly Cloudy
6:53 PM 80.1 °F 83.8 °F 72.0 °F 76% 29.97 in 10.0 mi SE 12.7 mph - N/A   Partly Cloudy
7:53 PM 79.0 °F - 72.0 °F 79% 29.99 in 10.0 mi SSE 12.7 mph - N/A   Scattered Clouds
8:53 PM 79.0 °F - 69.1 °F 72% 29.99 in 10.0 mi SE 9.2 mph - N/A   Clear
9:53 PM 79.0 °F - 68.0 °F 69% 30.01 in 10.0 mi SE 6.9 mph - N/A   Scattered Clouds
10:53 PM 79.0 °F - 69.1 °F 72% 30.00 in 10.0 mi SE 5.8 mph - N/A   Overcast
11:53 PM 80.1 °F 82.9 °F 69.1 °F 69% 29.99 in 10.0 mi South 4.6 mph - N/A   Overcast